Regional Weather Roundup
Issued by NWS San Diego, CA

Home | Current Version | Previous Version | Text Only | Print | Product List | Glossary On
Versions: 1 2 3 4 5 6 7 8 9 10 11 12 13 14 15 16 17 18 19 20 21 22 23 24 25 26 27 28 29 30 31 32 33 34 35 36 37 38 39 40 41 42 43 44 45 46 47 48 49 50
000
ASUS46 KSGX 190210
RWRSGX

SAN DIEGO HOURLY WEATHER ROUNDUP
NATIONAL WEATHER SERVICE SAN DIEGO CA
700 PM PDT THU SEP 18 2014

NOTE: "FAIR" INDICATES FEW OR NO CLOUDS BELOW 12,000 FEET WITH NO
SIGNIFICANT WEATHER AND/OR OBSTRUCTIONS TO VISIBILITY.

CAZ042-043-060-061-PZZ750-775-190300-

GREATER SAN DIEGO AREA

CITY           SKY/WX    TMP DP  RH WIND       PRES   REMARKS
LINDBERGH FLD  CLOUDY    73  65  75 W10       29.85R
POINT LOMA       N/A     71  65  83 NW13        N/A
NATIONAL CITY    N/A     73  67  80 NW2       29.84R
CHULA VISTA      N/A     73  68  84 W9        29.77R
IMPERIAL BEACH CLOUDY    73  67  81 NW7       29.84S
BROWN FIELD    MOCLDY    71  65  81 W6        29.84R
MIRAMAR MCAS   CLOUDY    72  64  76 NW8       29.84R
MONTGOMERY FLD CLOUDY    73  65  75 W8        29.84S

$$

NORTH SAN DIEGO COUNTY

CITY           SKY/WX    TMP DP  RH WIND       PRES   REMARKS
CAMP PENDLETON PTCLDY    72  64  76 W12       29.81S
OCEANSIDE AP   CLOUDY    73  66  78 VRB5      29.82R
OCEANSIDE HBR    N/A     72  68  87 W6        29.85R
VISTA            N/A     71  66  82 CALM      29.80S
CARLSBAD       CLOUDY    73  65  75 VRB5      29.83R
DEL MAR          N/A     73  68  86 CALM      29.85R
LA JOLLA SCRIP   N/A     71  68  92 NW3       29.81R
FALLBROOK        N/A     71  69  95 S6        29.81R
ESCONDIDO        N/A     74  66  76 W5        29.84R
SAN MARCOS       N/A     72  66  81 W5        29.80R
POWAY            N/A     73  65  77 CALM      29.83R

$$

EAST SAN DIEGO COUNTY

CITY           SKY/WX    TMP DP  RH WIND       PRES   REMARKS
RAMONA         PTCLDY    69  63  81 W10       29.86R
SANTEE LAKES     N/A     73  66  78 W3        29.84R
LA MESA          N/A     73  67  82 NW7       29.77R
JAMUL            N/A     73  66  79 W7        29.81R
DESCANSO N       N/A     67  60  77 W5        29.69R
MT. LAGUNA OBS   N/A     57  50  79 N12       29.63R
CAMPO            N/A     71  60  68 SW10      29.86R

$$

ORANGE COUNTY AND THE LOS ANGELES BASIN

CITY           SKY/WX    TMP DP  RH WIND       PRES   REMARKS
JOHN WAYNE AP  PTCLDY    75  65  70 W6        29.82R
LAGUNA BEACH     N/A    N/A  18   0 SW3       29.79R
LAKE FOREST FR   N/A     73  62  68 W5        29.73R
SANTA ANA        N/A     75  67  76 CALM      29.77R
HUNTINGTON BCH   N/A     71  67  86 W5        29.84S
LOS ALAMITOS   PTCLDY    73  65  76 SW7       29.82R
FULLERTON      CLEAR     76  64  66 W8        29.81R
LONG BEACH     CLEAR     73  65  75 NW10      29.82R
L.A. AP        PTCLDY    70  64  81 W13       29.83R
L.A. DOWNTOWN  PTCLDY    72  63  73 VRB5      29.82R

$$

THE INLAND EMPIRE

CITY           SKY/WX    TMP DP  RH WIND       PRES   REMARKS
CORONA         CLEAR     76  64  66 W13G20    29.81R
CHINO          PTCLDY    76  64  66 W15       29.83R
ONTARIO        PTCLDY    78  61  55 SW14      29.82R
SAN BERNARDINO CLEAR     77  57  50 CALM      29.83R
RIVERSIDE AP   CLEAR     77  63  61 W10       29.81R
RIV CYN CREST    N/A     77  69  75 W7        29.79S
MORENO VALLEY    N/A     77  65  67 NW3       29.01F
MARCH ARB      CLEAR     76  60  57 NW17      29.83S
HORSETHIEF CYN   N/A     80  56  43 NW7       29.80R
PERRIS           N/A     78  62  58 NW5       29.79R
MENIFEE          N/A     81  66  59 E1        29.87R
HEMET EAST       N/A     77  59  52 CALM      29.77R
FRENCH VALLEY  FAIR      73  64  73 S13       29.84R
TEMECULA         N/A     75  66  74 SW7       29.79R

$$

SAN BERNARDINO AND RIVERSIDE COUNTY MOUNTAINS

CITY           SKY/WX    TMP DP  RH WIND       PRES   REMARKS
BIG BEAR AP    CLEAR     59  39  47 W12       30.10S
PINE COVE        N/A     60  55  84 NW1       29.66S

$$

SOUTHERN DESERT INCLUDING THE COACHELLA VALLEY

CITY           SKY/WX    TMP DP  RH WIND       PRES   REMARKS
PALM SPRINGS   CLEAR     95  50  21 MISG      29.66R
THOUSAND PALMS   N/A     92  53  26 N13       29.60R
PALM DESERT      N/A     95  52  23 CALM        N/A
THERMAL        CLEAR     95  50  21 NW15      29.59R
BLYTHE         CLEAR    100  41  13 SW16      29.61R HX  95
IMPERIAL AP    CLEAR     92  50  23 W13       29.63R
EL CENTRO NAS  PTCLDY    93  47  20 W18       29.63R
YUMA AZ        PTCLDY   100  40  12 W13       29.63R HX  95
MEXICALI       CLEAR     97  37  12 W17       29.64

$$

UPPER DESERT

CITY           SKY/WX    TMP DP  RH WIND       PRES   REMARKS
VICTORVILLE AP CLEAR     77  54  44 S12       29.85R
HESPERIA         N/A     74  58  59 SW3       29.81R
APPLE VALLEY     N/A     74  57  55 S15G24    29.94R
PALMDALE       CLEAR     75  55  49 SW24      29.84R
LANCASTER      CLEAR     74  52  46 SW22      29.84R
EDWARDS AFB    PTCLDY    78  54  43 SW20G25   29.80R
DAGGETT        CLEAR     87  48  25 SW18      29.74R
29 PALMS N     CLEAR     88  42  20 SW13      29.80R
NEEDLES        CLEAR     98  60  28 S10       29.63S HX  98

$$

REGIONAL REPORTS

CITY           SKY/WX    TMP DP  RH WIND       PRES   REMARKS
SANTA BARBARA  CLEAR     73  61  65 E7        29.79R
SANDBERG       CLEAR     65  54  67 SW8       29.97R
MT. WILSON       N/A     61  54  77 SW5         N/A
LAS VEGAS NV   PTCLDY    92  30  11 SW16      29.67S
PHOENIX AZ     PTCLDY    92  63  38 S7        29.70R
TIJUANA        MOCLDY    72  63  73 W9        29.87R

$$

OFFSHORE ISLANDS

CITY           SKY/WX    TMP DP  RH WIND       PRES   REMARKS
CATALINA ARPT  FOG       63  61  93 W20       29.88S VSB 1/4
SAN NICOLAS IS PTCLDY   N/A N/A N/A W20       29.85R

$$

MARINE AND OFFSHORE BUOY REPORTS

STATION/POSITION SKY/WX   TEMP    WIND        PRES    SWELL
                          AIR SEA DIR/SP/G            HT/PER/DIR
                          (F)     (DEG/KT/KT) (MB)    (FT/S/D)
TANNER BANKS               69 71  280/ 10/ 12 1010.9S   7/300/13
S CLEMENTE BASIN           70 74  290/ 16/ 17 1009.8F   5/210/15
SAN NICOLAS IS.               69                N/A     5/300/13
SO. S. ROSA ISLA           67 70  310/ 16/ 19 1010.0S   7/16
W. S. BARBARA CH           64 60  310/ 14/ 17 1009.8R   7/290/14
M. S. BARBARA CH           66 66  260/ 19/ 23 1008.9F
S. MONICA BASIN            70 73  270/ 14/ 16 1009.4F   5/170/16
S PEDRO CHANNEL               73                N/A     2/170/15
DANA POINT                    70                N/A     3/210/17
CMP PENDLETON NS              72                N/A     2/220/17
OCEANSIDE OFFSHR              74                N/A     3/200/17
TORREY PINES OTR              74                N/A     3/200/15
LA JOLLA 1                 72 73  310/  8/ 10 1010.3S
MISSION BAY BUOY              74                N/A     3/210/15
SAN DIEGO BAY                 78              1010.9S

$$




USA.gov is the U.S. government's official web portal to all federal, state and local government web resources and services.